Terminal Aerodrome Forecast
Issued by NWS

Home | Current Version | Previous Version | Text Only | Print | Product List | Glossary On
Versions: 1 2 3 4 5 6 7 8 9 10 11 12 13 14 15 16 17
000
FTUS43 KMPX 251733
TAFRNH
TAF
KRNH 251733Z 2518/2618 24014G22KT P6SM OVC030
      TEMPO 2518/2519 SCT030
     FM260000 26012KT P6SM BKN035
     FM261300 28014G23KT P6SM SKC
     FM261600 29020G31KT P6SM SCT045=

USA.gov is the U.S. government's official web portal to all federal, state and local government web resources and services.